Time,TemperatureF,DewpointF,PressureIn,WindDirection,WindDirectionDegrees,WindSpeedMPH,WindSpeedGustMPH,Humidity,HourlyPrecipIn,Conditions,Clouds,dailyrainin,SoftwareType,DateUTC
2013-03-11 00:00:00,34.9,21.2,29.79,North,0,17.0,28.0,57,0.00,CLR,CLR,0.00,WeatherDisplay:10.37,2013-03-11 00:00:00,
2013-03-11 00:10:00,34.6,20.9,29.79,NE,39,20.0,29.0,57,0.00,CLR,CLR,0.00,WeatherDisplay:10.37,2013-03-11 00:10:00,
2013-03-11 00:20:00,34.3,21.1,29.79,North,11,23.0,33.0,58,0.04,RA,RA,0.04,WeatherDisplay:10.37,2013-03-11 00:20:00,
2013-03-11 00:30:00,34.2,20.9,29.79,NNE,16,20.0,36.0,58,0.01,RA,RA,0.05,WeatherDisplay:10.37,2013-03-11 00:30:00,
2013-03-11 00:40:00,34.2,20.9,29.79,NE,43,21.0,37.0,58,0.02,RA,RA,0.07,WeatherDisplay:10.37,2013-03-11 00:40:00,
2013-03-11 00:50:00,34.3,21.1,29.79,North,0,17.0,30.0,58,0.00,CLR,CLR,0.07,WeatherDisplay:10.37,2013-03-11 00:50:00,
2013-03-11 01:00:00,34.2,21.3,29.79,NNE,20,20.0,32.0,59,0.00,CLR,CLR,0.07,WeatherDisplay:10.37,2013-03-11 01:00:00,
2013-03-11 01:10:00,33.9,20.7,29.79,NE,41,21.0,32.0,58,0.00,CLR,CLR,0.07,WeatherDisplay:10.37,2013-03-11 01:10:00,
2013-03-11 01:20:00,34.0,21.1,29.79,NE,45,21.0,35.0,59,0.00,CLR,CLR,0.07,WeatherDisplay:10.37,2013-03-11 01:20:00,
2013-03-11 01:30:00,33.6,20.8,29.80,NE,45,17.0,31.0,59,0.00,CLR,CLR,0.07,WeatherDisplay:10.37,2013-03-11 01:30:00,
2013-03-11 01:40:00,33.4,21.0,29.79,NE,45,17.0,30.0,60,0.00,CLR,CLR,0.07,WeatherDisplay:10.37,2013-03-11 01:40:00,
2013-03-11 01:50:00,33.3,20.5,29.80,NE,45,17.0,34.0,59,0.01,RA,RA,0.08,WeatherDisplay:10.37,2013-03-11 01:50:00,
2013-03-11 02:00:00,33.3,20.5,29.80,NE,36,13.0,33.0,59,0.00,CLR,CLR,0.08,WeatherDisplay:10.37,2013-03-11 02:00:00,
2013-03-11 02:10:00,33.1,19.9,29.80,North,2,16.0,29.0,58,0.00,CLR,CLR,0.08,WeatherDisplay:10.37,2013-03-11 02:10:00,
2013-03-11 02:20:00,33.1,20.3,29.80,North,0,15.0,30.0,59,0.00,CLR,CLR,0.08,WeatherDisplay:10.37,2013-03-11 02:20:00,
2013-03-11 02:30:00,33.1,19.9,29.80,North,0,16.0,31.0,58,0.00,CLR,CLR,0.08,WeatherDisplay:10.37,2013-03-11 02:30:00,
2013-03-11 02:40:00,32.9,19.7,29.80,North,10,18.0,29.0,58,0.00,CLR,CLR,0.08,WeatherDisplay:10.37,2013-03-11 02:40:00,
2013-03-11 02:50:00,32.5,19.4,29.80,NE,44,14.0,29.0,58,0.00,CLR,CLR,0.08,WeatherDisplay:10.37,2013-03-11 02:50:00,
2013-03-11 03:00:00,32.6,19.4,29.80,NNE,33,18.0,30.0,58,0.00,CLR,CLR,0.08,WeatherDisplay:10.37,2013-03-11 03:00:00,
2013-03-11 03:10:00,32.6,19.5,29.80,NE,45,20.0,35.0,58,0.00,CLR,CLR,0.08,WeatherDisplay:10.37,2013-03-11 03:10:00,
2013-03-11 03:20:00,32.2,19.0,29.80,NE,45,22.0,34.0,58,0.01,RA,RA,0.09,WeatherDisplay:10.37,2013-03-11 03:20:00,
2013-03-11 03:30:00,32.3,19.1,29.80,NE,45,20.0,33.0,58,0.00,,,0.09,WeatherDisplay:10.37,2013-03-11 03:30:00,
2013-03-11 03:40:00,32.2,19.0,29.80,NE,45,15.0,30.0,58,0.00,CLR,CLR,0.09,WeatherDisplay:10.37,2013-03-11 03:40:00,
2013-03-11 03:50:00,32.2,19.0,29.80,North,357,16.0,29.0,58,0.00,CLR,CLR,0.09,WeatherDisplay:10.37,2013-03-11 03:50:00,
2013-03-11 04:00:00,32.2,19.0,29.81,NE,38,18.0,32.0,58,0.00,CLR,CLR,0.09,WeatherDisplay:10.37,2013-03-11 04:00:00,
2013-03-11 04:10:00,32.2,18.6,29.80,NE,45,15.0,31.0,57,0.00,CLR,CLR,0.09,WeatherDisplay:10.37,2013-03-11 04:10:00,
2013-03-11 04:20:00,32.2,18.6,29.81,NE,45,18.0,31.0,57,0.00,CLR,CLR,0.09,WeatherDisplay:10.37,2013-03-11 04:20:00,
2013-03-11 04:30:00,32.2,18.6,29.81,NE,45,17.0,35.0,57,0.00,CLR,CLR,0.09,WeatherDisplay:10.37,2013-03-11 04:30:00,
2013-03-11 04:40:00,31.8,18.7,29.81,NE,43,20.0,30.0,58,0.00,CLR,CLR,0.09,WeatherDisplay:10.37,2013-03-11 04:40:00,
2013-03-11 04:50:00,31.8,18.7,29.81,NE,36,20.0,35.0,58,0.01,RA,RA,0.11,WeatherDisplay:10.37,2013-03-11 04:50:00,
2013-03-11 05:00:00,31.6,18.1,29.81,NE,45,23.0,34.0,57,0.00,CLR,CLR,0.11,WeatherDisplay:10.37,2013-03-11 05:00:00,
2013-03-11 05:10:00,31.5,18.0,29.81,NE,45,23.0,35.0,57,0.00,CLR,CLR,0.11,WeatherDisplay:10.37,2013-03-11 05:10:00,
2013-03-11 05:20:00,31.5,18.0,29.81,NE,45,23.0,36.0,57,0.02,RA,RA,0.13,WeatherDisplay:10.37,2013-03-11 05:20:00,
2013-03-11 05:30:00,31.1,18.0,29.82,NE,45,25.0,32.0,58,0.00,CLR,CLR,0.13,WeatherDisplay:10.37,2013-03-11 05:30:00,
2013-03-11 05:40:00,30.9,18.7,29.82,NE,45,21.0,32.0,60,0.00,CLR,CLR,0.13,WeatherDisplay:10.37,2013-03-11 05:40:00,
2013-03-11 05:50:00,30.7,18.1,29.82,NE,45,23.0,33.0,59,0.00,CLR,CLR,0.13,WeatherDisplay:10.37,2013-03-11 05:50:00,
2013-03-11 06:00:00,30.7,18.5,29.82,NE,45,23.0,33.0,60,0.00,CLR,CLR,0.13,WeatherDisplay:10.37,2013-03-11 06:00:00,
2013-03-11 06:10:00,31.5,18.8,29.82,NE,45,23.0,35.0,59,0.00,CLR,CLR,0.13,WeatherDisplay:10.37,2013-03-11 06:10:00,
2013-03-11 06:20:00,31.3,18.6,29.82,NE,45,23.0,37.0,59,0.01,RA,RA,0.14,WeatherDisplay:10.37,2013-03-11 06:20:00,
2013-03-11 06:30:00,31.3,19.0,29.82,NNE,28,25.0,37.0,60,0.00,CLR,CLR,0.14,WeatherDisplay:10.37,2013-03-11 06:30:00,
2013-03-11 06:40:00,31.1,18.8,29.82,NNE,26,23.0,33.0,60,0.00,CLR,CLR,0.14,WeatherDisplay:10.37,2013-03-11 06:40:00,
2013-03-11 06:50:00,31.3,19.4,29.82,NE,38,25.0,35.0,61,0.01,RA,RA,0.15,WeatherDisplay:10.37,2013-03-11 06:50:00,
2013-03-11 07:00:00,31.5,19.2,29.83,NE,45,25.0,38.0,60,0.00,,,0.15,WeatherDisplay:10.37,2013-03-11 07:00:00,
2013-03-11 07:10:00,31.5,19.5,29.83,NE,45,20.0,42.0,61,0.05,RA,RA,0.20,WeatherDisplay:10.37,2013-03-11 07:10:00,
2013-03-11 07:20:00,31.5,19.2,29.83,NE,35,23.0,33.0,60,0.00,CLR,CLR,0.20,WeatherDisplay:10.37,2013-03-11 07:20:00,
2013-03-11 07:30:00,31.6,19.3,29.83,NE,45,23.0,35.0,60,0.01,RA,RA,0.21,WeatherDisplay:10.37,2013-03-11 07:30:00,
2013-03-11 07:40:00,32.0,18.9,29.83,NE,37,26.0,37.0,58,0.02,RA,RA,0.24,WeatherDisplay:10.37,2013-03-11 07:40:00,
2013-03-11 07:50:00,32.2,19.0,29.84,North,5,23.0,37.0,58,0.00,CLR,CLR,0.24,WeatherDisplay:10.37,2013-03-11 07:50:00,
2013-03-11 08:00:00,32.3,18.8,29.84,NE,37,24.0,39.0,57,0.05,RA,RA,0.28,WeatherDisplay:10.37,2013-03-11 08:00:00,
2013-03-11 08:10:00,32.7,19.1,29.84,NE,45,22.0,37.0,57,0.00,CLR,CLR,0.28,WeatherDisplay:10.37,2013-03-11 08:10:00,
2013-03-11 08:20:00,32.8,19.2,29.84,NE,45,25.0,38.0,57,0.00,CLR,CLR,0.28,WeatherDisplay:10.37,2013-03-11 08:20:00,
2013-03-11 08:30:00,32.9,18.9,29.84,NE,45,23.0,39.0,56,0.00,CLR,CLR,0.28,WeatherDisplay:10.37,2013-03-11 08:30:00,
2013-03-11 08:40:00,33.3,19.2,29.85,NE,45,23.0,39.0,56,0.01,RA,RA,0.29,WeatherDisplay:10.37,2013-03-11 08:40:00,
2013-03-11 08:50:00,33.4,19.0,29.85,NE,45,21.0,38.0,55,0.01,RA,RA,0.31,WeatherDisplay:10.37,2013-03-11 08:50:00,
2013-03-11 09:00:00,33.5,18.6,29.85,NE,45,18.0,40.0,54,0.17,RA,RA,0.47,WeatherDisplay:10.37,2013-03-11 09:00:00,
2013-03-11 09:10:00,34.9,19.9,29.86,NE,44,18.0,36.0,54,0.05,RA,RA,0.52,WeatherDisplay:10.37,2013-03-11 09:10:00,
2013-03-11 09:20:00,34.9,19.5,29.86,NE,45,20.0,34.0,53,0.00,,,0.52,WeatherDisplay:10.37,2013-03-11 09:20:00,
2013-03-11 09:30:00,35.2,19.4,29.86,NE,45,18.0,31.0,52,0.00,CLR,CLR,0.52,WeatherDisplay:10.37,2013-03-11 09:30:00,
2013-03-11 09:40:00,35.5,19.2,29.86,NNE,25,21.0,35.0,51,0.01,RA,RA,0.53,WeatherDisplay:10.37,2013-03-11 09:40:00,
2013-03-11 09:50:00,35.6,18.3,29.86,North,0,23.0,35.0,49,0.04,RA,RA,0.57,WeatherDisplay:10.37,2013-03-11 09:50:00,
2013-03-11 10:00:00,36.1,18.8,29.86,NNE,21,17.0,35.0,49,0.00,,,0.57,WeatherDisplay:10.37,2013-03-11 10:00:00,
2013-03-11 10:10:00,36.3,18.5,29.86,NE,40,17.0,38.0,48,0.04,RA,RA,0.60,WeatherDisplay:10.37,2013-03-11 10:10:00,
2013-03-11 10:20:00,36.7,18.8,29.87,NE,41,15.0,36.0,48,0.02,RA,RA,0.63,WeatherDisplay:10.37,2013-03-11 10:20:00,
2013-03-11 10:30:00,37.6,20.6,29.87,NE,42,18.0,30.0,50,0.00,CLR,CLR,0.63,WeatherDisplay:10.37,2013-03-11 10:30:00,
2013-03-11 10:40:00,37.0,17.1,29.87,NE,45,17.0,32.0,44,0.02,RA,RA,0.65,WeatherDisplay:10.37,2013-03-11 10:40:00,
2013-03-11 10:50:00,37.8,19.3,29.87,NE,45,12.0,29.0,47,0.01,RA,RA,0.66,WeatherDisplay:10.37,2013-03-11 10:50:00,
2013-03-11 11:00:00,37.6,19.7,29.88,NE,45,13.0,37.0,48,0.05,RA,RA,0.71,WeatherDisplay:10.37,2013-03-11 11:00:00,
2013-03-11 11:10:00,37.0,17.1,29.88,NE,45,13.0,30.0,44,0.00,CLR,CLR,0.71,WeatherDisplay:10.37,2013-03-11 11:10:00,
2013-03-11 11:20:00,38.4,19.9,29.88,NE,45,9.0,31.0,47,0.00,CLR,CLR,0.71,WeatherDisplay:10.37,2013-03-11 11:20:00,
2013-03-11 11:30:00,37.2,17.3,29.88,NE,39,12.0,34.0,44,0.00,CLR,CLR,0.71,WeatherDisplay:10.37,2013-03-11 11:30:00,
2013-03-11 11:40:00,38.1,19.6,29.88,North,0,13.0,25.0,47,0.00,CLR,CLR,0.71,WeatherDisplay:10.37,2013-03-11 11:40:00,
2013-03-11 11:50:00,37.9,18.9,29.88,North,6,21.0,31.0,46,0.00,CLR,CLR,0.71,WeatherDisplay:10.37,2013-03-11 11:50:00,
2013-03-11 12:00:00,37.9,19.0,29.88,North,7,14.0,35.0,46,0.00,CLR,CLR,0.71,WeatherDisplay:10.37,2013-03-11 12:00:00,
2013-03-11 12:10:00,38.1,18.6,29.89,NNE,27,13.0,30.0,45,0.00,CLR,CLR,0.71,WeatherDisplay:10.37,2013-03-11 12:10:00,
2013-03-11 12:20:00,37.6,18.1,29.88,NE,39,18.0,29.0,45,0.00,CLR,CLR,0.71,WeatherDisplay:10.37,2013-03-11 12:20:00,
2013-03-11 12:30:00,38.2,17.1,29.89,North,3,9.0,35.0,42,0.01,RA,RA,0.72,WeatherDisplay:10.37,2013-03-11 12:30:00,
2013-03-11 12:40:00,39.6,15.4,29.89,NNE,25,12.0,25.0,37,0.00,CLR,CLR,0.72,WeatherDisplay:10.37,2013-03-11 12:40:00,
2013-03-11 12:50:00,38.0,14.0,29.88,NE,45,17.0,36.0,37,0.00,CLR,CLR,0.72,WeatherDisplay:10.37,2013-03-11 12:50:00,
2013-03-11 13:00:00,40.1,15.2,29.89,NE,45,13.0,27.0,36,0.00,CLR,CLR,0.72,WeatherDisplay:10.37,2013-03-11 13:00:00,
2013-03-11 13:10:00,41.5,14.5,29.89,NE,45,12.0,28.0,33,0.00,CLR,CLR,0.72,WeatherDisplay:10.37,2013-03-11 13:10:00,
2013-03-11 13:20:00,41.3,12.9,29.88,NE,45,22.0,30.0,31,0.02,RA,RA,0.74,WeatherDisplay:10.37,2013-03-11 13:20:00,
2013-03-11 13:30:00,40.5,13.6,29.89,NE,45,14.0,29.0,33,0.00,,,0.74,WeatherDisplay:10.37,2013-03-11 13:30:00,
2013-03-11 13:40:00,40.4,11.4,29.88,NE,45,16.0,31.0,30,0.00,CLR,CLR,0.74,WeatherDisplay:10.37,2013-03-11 13:40:00,
2013-03-11 13:50:00,38.5,11.2,29.89,NE,45,14.0,37.0,32,0.07,RA,RA,0.81,WeatherDisplay:10.37,2013-03-11 13:50:00,
2013-03-11 14:00:00,39.8,10.9,29.89,NE,45,18.0,32.0,30,0.00,CLR,CLR,0.81,WeatherDisplay:10.37,2013-03-11 14:00:00,
2013-03-11 14:10:00,38.9,11.5,29.89,NE,45,10.0,29.0,32,0.00,CLR,CLR,0.81,WeatherDisplay:10.37,2013-03-11 14:10:00,
2013-03-11 14:20:00,39.4,11.2,29.89,NE,45,9.0,25.0,31,0.00,CLR,CLR,0.81,WeatherDisplay:10.37,2013-03-11 14:20:00,
2013-03-11 14:30:00,39.6,12.1,29.89,NE,45,14.0,29.0,32,0.00,CLR,CLR,0.81,WeatherDisplay:10.37,2013-03-11 14:30:00,
2013-03-11 14:40:00,41.5,13.0,29.89,NE,45,9.0,29.0,31,0.00,CLR,CLR,0.81,WeatherDisplay:10.37,2013-03-11 14:40:00,
2013-03-11 14:50:00,42.3,11.4,29.89,NE,37,15.0,27.0,28,0.00,CLR,CLR,0.81,WeatherDisplay:10.37,2013-03-11 14:50:00,
2013-03-11 15:00:00,42.1,10.5,29.88,NE,43,14.0,26.0,27,0.00,CLR,CLR,0.81,WeatherDisplay:10.37,2013-03-11 15:00:00,
2013-03-11 15:10:00,40.2,8.8,29.89,NNE,27,16.0,35.0,27,0.00,CLR,CLR,0.81,WeatherDisplay:10.37,2013-03-11 15:10:00,
2013-03-11 15:20:00,39.5,9.8,29.89,North,10,13.0,31.0,29,0.00,CLR,CLR,0.81,WeatherDisplay:10.37,2013-03-11 15:20:00,
2013-03-11 15:30:00,40.6,11.6,29.89,North,0,9.0,29.0,30,0.00,CLR,CLR,0.81,WeatherDisplay:10.37,2013-03-11 15:30:00,
2013-03-11 15:40:00,40.1,10.3,29.89,NNE,24,21.0,35.0,29,0.01,RA,RA,0.83,WeatherDisplay:10.37,2013-03-11 15:40:00,
2013-03-11 15:50:00,40.3,11.3,29.89,NE,45,12.0,36.0,30,0.08,RA,RA,0.91,WeatherDisplay:10.37,2013-03-11 15:50:00,
2013-03-11 16:00:00,40.6,11.5,29.89,NE,45,8.0,30.0,30,0.00,CLR,CLR,0.91,WeatherDisplay:10.37,2013-03-11 16:00:00,
2013-03-11 16:10:00,42.4,11.5,29.89,NE,45,17.0,31.0,28,0.00,CLR,CLR,0.91,WeatherDisplay:10.37,2013-03-11 16:10:00,
2013-03-11 16:20:00,38.5,13.8,29.89,NE,45,21.0,39.0,36,0.19,RA,RA,1.10,WeatherDisplay:10.37,2013-03-11 16:20:00,
2013-03-11 16:30:00,38.1,14.1,29.89,NE,45,14.0,30.0,37,0.00,CLR,CLR,1.10,WeatherDisplay:10.37,2013-03-11 16:30:00,
2013-03-11 16:40:00,40.9,15.3,29.90,NE,45,17.0,26.0,35,0.00,CLR,CLR,1.10,WeatherDisplay:10.37,2013-03-11 16:40:00,
2013-03-11 16:50:00,40.2,16.6,29.90,NE,45,21.0,35.0,38,0.00,CLR,CLR,1.10,WeatherDisplay:10.37,2013-03-11 16:50:00,
2013-03-11 17:00:00,37.6,18.6,29.90,NE,45,17.0,36.0,46,0.00,CLR,CLR,1.10,WeatherDisplay:10.37,2013-03-11 17:00:00,
2013-03-11 17:10:00,39.9,20.3,29.90,NE,45,17.0,27.0,45,0.00,CLR,CLR,1.10,WeatherDisplay:10.37,2013-03-11 17:10:00,
2013-03-11 17:20:00,40.8,18.3,29.90,NE,45,21.0,30.0,40,0.00,CLR,CLR,1.10,WeatherDisplay:10.37,2013-03-11 17:20:00,
2013-03-11 17:30:00,38.7,17.0,29.91,NE,45,16.0,34.0,41,0.01,RA,RA,1.11,WeatherDisplay:10.37,2013-03-11 17:30:00,
2013-03-11 17:40:00,38.1,16.5,29.91,NE,45,10.0,28.0,41,0.00,CLR,CLR,1.11,WeatherDisplay:10.37,2013-03-11 17:40:00,
2013-03-11 17:50:00,37.4,17.4,29.92,NE,45,14.0,23.0,44,0.00,CLR,CLR,1.11,WeatherDisplay:10.37,2013-03-11 17:50:00,
2013-03-11 18:00:00,37.1,16.1,29.92,NE,42,22.0,28.0,42,0.00,CLR,CLR,1.11,WeatherDisplay:10.37,2013-03-11 18:00:00,
2013-03-11 18:10:00,36.2,18.3,29.92,NNE,24,16.0,28.0,48,0.00,CLR,CLR,1.11,WeatherDisplay:10.37,2013-03-11 18:10:00,
2013-03-11 18:20:00,36.3,19.4,29.93,North,11,10.0,23.0,50,0.00,CLR,CLR,1.11,WeatherDisplay:10.37,2013-03-11 18:20:00,
2013-03-11 18:30:00,35.8,19.4,29.93,NE,45,13.0,22.0,51,0.00,CLR,CLR,1.11,WeatherDisplay:10.37,2013-03-11 18:30:00,
2013-03-11 18:40:00,35.2,18.9,29.93,NE,42,15.0,24.0,51,0.00,CLR,CLR,1.11,WeatherDisplay:10.37,2013-03-11 18:40:00,
2013-03-11 18:50:00,34.9,18.6,29.93,NE,45,16.0,27.0,51,0.00,CLR,CLR,1.11,WeatherDisplay:10.37,2013-03-11 18:50:00,
2013-03-11 19:00:00,34.9,19.0,29.94,NNE,19,15.0,24.0,52,0.00,CLR,CLR,1.11,WeatherDisplay:10.37,2013-03-11 19:00:00,
2013-03-11 19:10:00,34.3,18.5,29.94,NE,37,14.0,21.0,52,0.00,CLR,CLR,1.11,WeatherDisplay:10.37,2013-03-11 19:10:00,
2013-03-11 19:20:00,33.7,18.8,29.94,NE,45,5.0,18.0,54,0.00,CLR,CLR,1.11,WeatherDisplay:10.37,2013-03-11 19:20:00,
2013-03-11 19:30:00,34.0,18.6,29.94,North,0,5.0,17.0,53,0.00,CLR,CLR,1.11,WeatherDisplay:10.37,2013-03-11 19:30:00,
2013-03-11 19:40:00,33.5,18.6,29.94,NNE,31,16.0,24.0,54,0.00,CLR,CLR,1.11,WeatherDisplay:10.37,2013-03-11 19:40:00,
2013-03-11 19:50:00,33.8,18.5,29.95,NE,42,10.0,24.0,53,0.00,CLR,CLR,1.11,WeatherDisplay:10.37,2013-03-11 19:50:00,
2013-03-11 20:00:00,33.4,19.0,29.95,NNE,32,15.0,22.0,55,0.00,CLR,CLR,1.11,WeatherDisplay:10.37,2013-03-11 20:00:00,
2013-03-11 20:10:00,33.1,18.7,29.95,NE,45,14.0,23.0,55,0.00,CLR,CLR,1.11,WeatherDisplay:10.37,2013-03-11 20:10:00,
2013-03-11 20:20:00,32.9,18.9,29.95,NE,46,13.0,21.0,56,0.00,CLR,CLR,1.11,WeatherDisplay:10.37,2013-03-11 20:20:00,
2013-03-11 20:30:00,32.5,19.0,29.95,NE,45,7.0,21.0,57,0.00,CLR,CLR,1.11,WeatherDisplay:10.37,2013-03-11 20:30:00,
2013-03-11 20:40:00,32.2,19.0,29.95,NE,45,5.0,15.0,58,0.00,CLR,CLR,1.11,WeatherDisplay:10.37,2013-03-11 20:40:00,
2013-03-11 20:50:00,32.4,18.8,29.95,NE,45,9.0,18.0,57,0.00,CLR,CLR,1.11,WeatherDisplay:10.37,2013-03-11 20:50:00,
2013-03-11 21:00:00,32.8,18.4,29.95,NE,44,12.0,22.0,55,0.00,CLR,CLR,1.11,WeatherDisplay:10.37,2013-03-11 21:00:00,
2013-03-11 21:10:00,32.5,18.1,29.95,NE,40,12.0,23.0,55,0.00,CLR,CLR,1.11,WeatherDisplay:10.37,2013-03-11 21:10:00,
2013-03-11 21:20:00,32.7,18.3,29.96,NE,43,9.0,21.0,55,0.00,CLR,CLR,1.11,WeatherDisplay:10.37,2013-03-11 21:20:00,
2013-03-11 21:30:00,32.5,18.1,29.96,NE,45,9.0,21.0,55,0.00,CLR,CLR,1.11,WeatherDisplay:10.37,2013-03-11 21:30:00,
2013-03-11 21:40:00,32.5,18.1,29.96,NNE,24,9.0,21.0,55,0.00,CLR,CLR,1.11,WeatherDisplay:10.37,2013-03-11 21:40:00,
2013-03-11 21:50:00,32.5,18.1,29.96,NNE,30,9.0,17.0,55,0.00,CLR,CLR,1.11,WeatherDisplay:10.37,2013-03-11 21:50:00,
2013-03-11 22:00:00,32.2,17.8,29.96,NE,36,7.0,22.0,55,0.00,CLR,CLR,1.11,WeatherDisplay:10.37,2013-03-11 22:00:00,
2013-03-11 22:10:00,32.0,18.1,29.97,North,0,8.0,17.0,56,0.00,CLR,CLR,1.11,WeatherDisplay:10.37,2013-03-11 22:10:00,
2013-03-11 22:20:00,32.0,18.1,29.96,North,11,8.0,20.0,56,0.00,CLR,CLR,1.11,WeatherDisplay:10.37,2013-03-11 22:20:00,
2013-03-11 22:30:00,31.6,18.5,29.96,NE,48,9.0,21.0,58,0.00,CLR,CLR,1.11,WeatherDisplay:10.37,2013-03-11 22:30:00,
2013-03-11 22:40:00,31.8,18.7,29.96,NE,45,9.0,20.0,58,0.00,CLR,CLR,1.11,WeatherDisplay:10.37,2013-03-11 22:40:00,
2013-03-11 22:50:00,31.6,18.9,29.97,ESE,120,7.0,18.0,59,0.00,CLR,CLR,1.11,WeatherDisplay:10.37,2013-03-11 22:50:00,
2013-03-11 23:00:00,31.8,19.1,29.97,North,10,7.0,18.0,59,0.00,CLR,CLR,1.11,WeatherDisplay:10.37,2013-03-11 23:00:00,
2013-03-11 23:10:00,31.5,18.8,29.97,East,93,7.0,16.0,59,0.00,CLR,CLR,1.11,WeatherDisplay:10.37,2013-03-11 23:10:00,
2013-03-11 23:20:00,30.9,19.0,29.97,East,90,8.0,17.0,61,0.00,CLR,CLR,1.11,WeatherDisplay:10.37,2013-03-11 23:20:00,
2013-03-11 23:30:00,31.1,19.2,29.97,East,90,7.0,20.0,61,0.00,CLR,CLR,1.11,WeatherDisplay:10.37,2013-03-11 23:30:00,
2013-03-11 23:40:00,31.3,19.0,29.97,East,90,10.0,21.0,60,0.00,CLR,CLR,1.11,WeatherDisplay:10.37,2013-03-11 23:40:00,
2013-03-11 23:50:00,30.9,18.7,29.97,ENE,71,9.0,20.0,60,0.00,CLR,CLR,1.11,WeatherDisplay:10.37,2013-03-11 23:50:00,